Weather History for Port Isabel, TX

Change the Weather History Date:

Sunday, March 9, 2014

  Actual Average Record
Temperature  
Mean Temperature 59 °F -  
Max Temperature 68 °F - - ()
Min Temperature 50 °F - - ()
Degree Days  
Heating Degree Days 6    
Growing Degree Days 9 (Base 50)    
Moisture  
Dew Point 53 °F    
Average Humidity 94    
Maximum Humidity 100    
Minimum Humidity 88    
Precipitation  
Precipitation 0.79 in - - ()
Sea Level Pressure  
Sea Level Pressure 30.15 in    
Wind  
Wind Speed 14 mph (NNW)    
Max Wind Speed 25 mph    
Max Gust Speed 36 mph    
Visibility 4 miles    
Events Rain , Thunderstorm    
T = Trace of Precipitation, MM = Missing Value Source: NWS Daily Summary

Daily Weather History Graph

Daily Weather History Graph

Search for Another Location

Airport:

Trip Planner

Search our weather history database for the weather conditions in past years. The results will help you decide how hot, cold, wet, or windy it might be!

Date:

Astronomy

Mar. 09, 2014 Rise Set
Actual Time 7:44 AM CDT 7:35 PM CDT
Civil Twilight 7:21 AM CDT 7:58 PM CDT
Nautical Twilight 6:55 AM CDT 8:25 PM CDT
Astronomical Twilight 6:28 AM CDT 8:51 PM CDT
Moon 1:52 PM CDT (3/9) 3:47 AM CDT (3/9)
Length of Visible Light 12h 36m
Length of Day
11h 50m
First Quarter, 61% of the Moon is Illuminated
Mar 9
First Quarter
Mar 16
Full
Mar 23
Last Quarter
Mar 30
New
Apr 7
First Quarter

Hourly Weather History & Observations

Time (CDT) Temp. Dew Point Humidity Pressure Visibility Wind Dir Wind Speed Gust Speed Precip Events Conditions
12:53 AM 66.9 °F 64.9 °F 93% 30.04 in 6.0 mi ENE 4.6 mph - N/A   Overcast
1:06 AM 66.2 °F 64.4 °F 94% 30.04 in 6.0 mi NE 5.8 mph - N/A   Overcast
1:53 AM 68.0 °F 66.0 °F 93% 30.03 in 6.0 mi ENE 5.8 mph - 0.00 in Rain Light Rain
3:18 AM 68.0 °F 66.2 °F 94% 30.02 in 5.0 mi East 8.1 mph - 0.00 in Rain Light Rain
3:37 AM 66.2 °F 66.2 °F 100% 30.01 in 4.0 mi ENE 5.8 mph - 0.02 in Rain Light Rain
3:53 AM 66.9 °F 66.0 °F 97% 30.01 in 5.0 mi ENE 4.6 mph - 0.02 in Rain , Thunderstorm Light Rain
4:02 AM 66.2 °F 66.2 °F 100% 30.03 in 4.0 mi Variable 6.9 mph - 0.02 in Rain , Thunderstorm Rain
4:06 AM 62.6 °F 62.6 °F 100% 30.05 in 4.0 mi NNW 24.2 mph 35.7 mph 0.02 in Rain Rain
4:16 AM 59.0 °F 57.2 °F 94% 30.05 in 2.5 mi NNW 25.3 mph 31.1 mph 0.14 in Rain Heavy Rain
4:28 AM 57.2 °F 55.4 °F 94% 30.07 in 2.5 mi NNW 24.2 mph 28.8 mph 0.25 in Rain Heavy Rain
4:31 AM 57.2 °F 55.4 °F 94% 30.06 in 1.5 mi NNW 25.3 mph 29.9 mph 0.37 in Rain Heavy Rain
4:44 AM 57.2 °F 55.4 °F 94% 30.07 in 2.0 mi North 18.4 mph 26.5 mph 0.56 in Rain Heavy Rain
4:53 AM 57.0 °F 55.9 °F 96% 30.06 in 4.0 mi North 19.6 mph 27.6 mph 0.59 in Rain Heavy Rain
5:07 AM 57.2 °F 55.4 °F 94% 30.06 in 8.0 mi North 20.7 mph 29.9 mph 0.01 in Rain Light Rain
5:53 AM 57.0 °F 55.0 °F 93% 30.07 in 10.0 mi North 18.4 mph 27.6 mph 0.01 in   Overcast
6:53 AM 57.0 °F 55.0 °F 93% 30.11 in 10.0 mi NNW 19.6 mph 25.3 mph 0.00 in Rain Light Rain
7:53 AM 57.0 °F 55.0 °F 93% 30.15 in 9.0 mi NW 16.1 mph 25.3 mph 0.00 in Rain Light Rain
8:29 AM 55.4 °F 53.6 °F 94% 30.18 in 2.5 mi NW 19.6 mph - 0.05 in Rain Rain
8:53 AM 54.0 °F 53.1 °F 97% 30.19 in 2.5 mi NW 18.4 mph - 0.08 in Rain Rain
9:07 AM 53.6 °F 51.8 °F 94% 30.19 in 3.0 mi NW 21.9 mph 26.5 mph 0.01 in Rain Light Rain
9:42 AM 51.8 °F 51.8 °F 100% 30.20 in 2.0 mi NW 18.4 mph 26.5 mph 0.05 in Rain Rain
9:53 AM 53.1 °F 51.1 °F 93% 30.19 in 3.0 mi NW 19.6 mph - 0.06 in Rain Light Rain
10:53 AM 52.0 °F 50.0 °F 93% 30.20 in 10.0 mi NNW 20.7 mph 27.6 mph 0.00 in   Overcast
11:53 AM 52.0 °F 50.0 °F 93% 30.23 in 5.0 mi NW 20.7 mph 27.6 mph 0.00 in Rain Light Rain
12:36 PM 51.8 °F 50.0 °F 94% 30.24 in 2.5 mi NW 18.4 mph - 0.00 in   Overcast
12:44 PM 51.8 °F 50.0 °F 94% 30.24 in 1.8 mi NW 19.6 mph - 0.00 in   Overcast
12:53 PM 51.1 °F 50.0 °F 96% 30.24 in 1.0 mi NW 18.4 mph - 0.00 in Rain Light Rain
1:45 PM 51.8 °F 50.0 °F 94% 30.22 in 2.5 mi NNW 16.1 mph - 0.00 in Rain Light Rain
1:53 PM 51.1 °F 50.0 °F 96% 30.22 in 2.5 mi NW 17.3 mph - 0.00 in   Overcast
2:02 PM 51.8 °F 50.0 °F 94% 30.21 in 2.0 mi NNW 13.8 mph - N/A   Overcast
2:26 PM 51.8 °F 48.2 °F 88% 30.21 in 3.0 mi NNW 19.6 mph - 0.00 in   Overcast
2:53 PM 51.1 °F 50.0 °F 96% 30.19 in 4.0 mi NNW 17.3 mph - 0.00 in   Overcast
3:53 PM 51.1 °F 48.9 °F 92% 30.17 in 5.0 mi NNW 17.3 mph - N/A   Overcast
4:53 PM 51.1 °F 48.9 °F 92% 30.16 in 6.0 mi NNW 15.0 mph - N/A   Overcast
5:53 PM 51.1 °F 48.9 °F 92% 30.16 in 7.0 mi NNW 15.0 mph - N/A   Overcast
6:50 PM 51.8 °F 48.2 °F 88% 30.17 in 2.5 mi NNW 13.8 mph - N/A   Overcast
6:53 PM 51.1 °F 48.9 °F 92% 30.17 in 2.5 mi NNW 15.0 mph - N/A   Overcast
7:00 PM 51.8 °F 48.2 °F 88% 30.18 in 3.0 mi NNW 12.7 mph - N/A   Overcast
7:53 PM 51.1 °F 48.9 °F 92% 30.20 in 7.0 mi NW 15.0 mph - N/A   Overcast
8:53 PM 51.1 °F 48.0 °F 89% 30.22 in 8.0 mi NW 15.0 mph - N/A   Overcast
9:53 PM 51.1 °F 48.0 °F 89% 30.23 in 5.0 mi NW 17.3 mph 25.3 mph N/A   Overcast
10:22 PM 50.0 °F 48.2 °F 94% 30.23 in 2.5 mi NNW 12.7 mph - N/A   Overcast
10:43 PM 50.0 °F 48.2 °F 94% 30.23 in 2.5 mi NNW 12.7 mph - N/A   Overcast
10:53 PM 50.0 °F 48.9 °F 96% 30.23 in 3.0 mi NW 17.3 mph - N/A   Overcast
11:53 PM 51.1 °F 48.9 °F 92% 30.24 in 3.0 mi WNW 15.0 mph - 0.00 in   Overcast
12:19 AM 51.8 °F 50.0 °F 94% 30.23 in 2.5 mi NW 12.7 mph - 0.00 in Rain Light Rain
12:33 AM 51.8 °F 50.0 °F 94% 30.22 in 3.0 mi NW 15.0 mph - 0.01 in Rain Light Rain
12:53 AM 51.1 °F 51.1 °F 100% 30.22 in 3.0 mi WNW 10.4 mph - 0.03 in Rain Rain